STAR ONE C4 (40733 NORAD) Tracking and Keplerian Element Data

This shows tracking and keplerian element data for the satellite.

Feedback or suggestion? Click here.




ElementValue
Catalog40733
NameSTAR ONE C4
Epoch Orbit3501
Epoch Day35.02358876
Epoch Year2025
RAAN33.3666
Inclination0.0237
Eccentricity0.0002544
Argument of Perigee294.8314
Mean Anonmoly104.6938
Mean Motion1.00272385
Decay Rate-2.61E-06
L11 40733U 15034B 25035.02358876 -.00000261 00000+0 00000+0 0 9992
L22 40733 0.0237 33.3666 0002544 294.8314 104.6938 1.00272385 35012



Live tracking and technical data element details for STAR ONE C4 (NORAD 40733). STAR ONE C4 can be tracked NOW for your location showing map with azimuth and elevation plus other details from your city location.







IsCatalogInMostPopularTable: catalog: 40733, numindb: 879
Update: records affected: 1



GetName: 40733 STAR ONE C4

Hit Count: updated at: Thu, 13 Feb 2025 16:15:04 GMT